Wind_Speed
56 61 61 63 64 64 65 67 69 73 75 77 78 77 81 87 90 92 94 96 97 98 96 94 94 97 102 103 103 102 103 101 98 99 96 95 95 94 92 86 86 83 74 72
62 66 67 68 70 70 73 75 76 75 80 84 84 82 87 93 96 99 99 103 104 106 108 108 108 110 111 110 110 110 111 113 109 103 104 103 102 101 99 96 89 82 76 68
67 70 71 73 73 75 79 83 83 85 86 91 93 87 94 98 102 103 106 107 112 114 115 117 116 117 119 120 119 117 115 115 115 113 108 107 106 103 100 93 89 67 69 62
71 74 76 77 79 82 85 88 91 91 94 96 100 99 96 101 106 108 111 115 118 123 126 126 125 124 125 126 123 122 121 119 117 108 102 95 85 85 81 78 81 61 61 55
74 77 80 82 84 88 91 95 96 98 103 106 107 114 109 110 114 115 119 121 125 127 126 124 127 129 128 127 122 118 112 106 100 97 91 86 81 70 63 66 73 63 55 55
79 81 81 85 90 93 98 100 104 108 112 113 117 122 117 121 125 129 130 131 133 134 131 128 126 123 113 107 103 101 96 90 85 80 79 73 70 65 57 60 66 59 52 56
79 84 88 91 96 102 107 110 114 112 116 118 122 127 132 134 136 139 137 132 132 131 130 125 115 105 101 95 88 86 79 70 67 67 66 65 63 60 52 54 61 54 55 64
82 86 93 97 102 106 111 116 121 120 122 124 124 131 138 141 144 141 135 132 127 124 120 112 102 90 81 76 75 73 65 59 48 58 60 57 53 52 51 50 54 55 57 68
88 89 95 101 106 108 110 116 124 131 128 134 136 138 141 146 144 142 137 128 117 111 103 94 79 72 67 65 64 63 56 50 46 51 53 52 50 49 47 47 45 51 59 67
88 88 93 101 107 112 117 122 128 134 139 142 141 139 144 145 140 133 125 116 101 89 82 73 67 62 59 60 56 54 49 45 41 44 48 49 47 46 47 45 49 52 63 67
98 101 100 107 115 120 123 130 139 141 146 152 148 139 141 137 130 118 105 95 86 78 71 67 61 58 53 53 52 48 44 39 39 43 46 48 45 46 46 46 52 58 67 69
108 113 113 113 122 129 133 139 145 148 146 144 149 135 132 119 110 101 90 79 75 71 65 62 57 55 51 46 46 45 41 40 38 42 44 44 42 45 43 45 54 70 72 71
114 120 122 121 130 134 139 145 150 151 148 146 137 125 112 104 93 85 78 72 68 66 60 57 53 50 50 43 42 40 39 39 40 41 41 40 40 42 41 47 56 72 71 73
121 126 132 135 138 141 140 144 148 149 143 132 118 108 102 91 86 80 74 67 63 58 54 48 46 43 45 39 38 37 38 40 39 39 40 39 38 39 42 48 59 66 72 73
130 132 138 138 142 143 143 142 140 133 126 121 104 99 90 86 81 75 67 61 55 48 45 39 40 40 39 35 34 36 38 40 37 38 38 40 40 39 43 46 54 63 77 77
133 136 141 136 142 141 137 134 126 120 113 104 97 92 84 79 72 66 60 52 45 39 36 33 34 36 34 31 31 34 38 39 37 38 43 46 46 46 48 47 54 64 73 75
131 139 142 136 139 132 124 122 116 108 103 96 91 84 77 69 63 57 51 45 38 35 32 30 31 31 30 30 30 34 38 40 41 45 53 53 50 55 58 50 53 59 68 78
135 139 139 131 125 118 115 113 104 100 95 90 83 72 66 60 54 49 45 39 32 28 27 26 29 30 31 31 33 35 42 43 48 57 61 61 64 69 66 55 51 57 62 75
132 132 128 122 116 110 106 103 96 91 87 77 70 62 56 51 47 44 40 31 26 24 24 26 29 28 30 29 36 40 47 51 58 65 65 68 74 74 75 71 57 63 64 69
118 118 115 114 108 99 99 94 88 81 73 65 58 52 47 43 40 37 32 26 24 23 22 23 25 27 26 28 36 45 51 57 67 68 72 73 78 77 76 74 71 67 63 63
111 110 108 103 102 93 90 83 76 70 63 55 50 44 40 35 37 29 21 22 23 19 20 21 25 24 26 27 37 48 54 62 70 75 73 78 74 76 72 70 68 68 59 60
107 102 97 93 91 83 77 72 65 59 51 48 43 40 32 34 28 20 17 18 19 18 19 20 19 22 25 31 42 50 56 67 74 77 76 76 74 75 71 71 67 66 64 57
99 95 87 81 80 71 65 60 54 50 46 41 38 31 30 28 16 16 16 16 14 15 16 18 22 24 27 35 46 50 58 68 78 78 77 77 76 74 70 65 67 68 66 63
92 83 77 72 70 57 53 49 47 44 40 35 29 22 28 16 14 14 13 12 12 13 15 18 20 22 28 38 47 53 60 66 77 76 77 81 75 72 69 67 71 66 64 55
80 72 66 64 55 51 46 43 40 37 33 30 19 22 16 10 13 11 9 11 13 13 13 17 21 25 32 42 49 52 57 65 71 78 73 77 78 71 70 63 67 67 61 58
65 63 60 55 44 45 40 36 32 31 27 20 17 17 9 11 10 9 11 11 12 16 19 22 26 30 38 44 48 50 57 67 71 75 75 81 78 71 63 59 60 60 55 55
Wind_Direction
288 290 291 289 289 290 292 293 293 293 295 296 296 297 298 299 296 296 294 298 299 301 298 294 290 286 286 287 285 281 279 278 280 283 283 283 280 280 281 280 278 278 272 272
290 291 290 289 289 291 292 292 293 294 294 295 296 295 298 297 295 298 299 298 298 299 298 297 294 291 288 285 284 283 281 279 278 277 278 278 277 277 274 274 274 272 269 264
285 286 287 287 289 288 289 291 293 293 294 296 296 298 298 297 296 297 298 296 296 296 296 295 294 292 290 287 284 282 281 281 281 280 279 278 276 276 272 272 270 261 257 253
287 289 287 288 287 288 291 292 292 292 294 295 296 296 296 296 294 293 295 297 297 296 295 295 294 291 290 287 285 282 280 280 281 280 279 277 271 271 267 263 263 250 244 240
288 287 287 287 287 289 291 292 292 292 295 296 297 297 300 299 297 294 298 295 296 298 296 292 290 290 288 287 285 283 281 279 279 277 275 274 272 263 255 256 254 244 235 231
288 288 289 289 289 290 291 292 292 293 295 297 298 299 301 299 299 300 297 297 297 296 294 292 291 290 288 286 283 281 280 277 276 273 270 268 265 261 253 247 243 238 227 219
288 289 290 290 292 292 292 293 292 293 295 297 298 300 301 301 302 300 301 301 299 296 294 293 290 288 286 284 280 277 277 275 273 270 264 262 260 255 247 238 234 226 220 207
286 286 287 288 289 290 291 292 292 293 294 295 298 301 299 300 300 300 301 301 300 297 296 294 292 288 283 279 275 274 273 271 266 262 260 258 252 247 240 236 229 220 216 202
287 288 288 289 290 291 291 293 296 299 300 301 302 300 302 301 300 301 300 300 299 296 294 292 290 283 281 277 274 272 269 264 256 254 253 249 245 241 234 226 219 212 204 197
286 286 287 289 290 291 294 296 297 299 300 300 301 302 301 301 302 303 302 301 301 296 291 288 285 281 277 275 270 265 265 265 255 248 247 244 238 234 226 218 208 202 197 194
291 293 294 295 296 298 299 300 298 298 301 302 304 305 302 301 302 302 301 300 297 294 289 285 282 277 271 270 267 262 260 255 248 243 241 241 234 229 220 208 204 197 193 196
291 294 296 297 298 299 299 299 299 300 302 303 301 303 301 302 302 303 300 298 295 292 288 286 283 277 272 264 259 258 255 249 241 240 238 233 224 219 210 202 199 191 190 193
294 294 295 296 298 298 299 300 300 301 303 304 303 302 302 301 303 299 299 297 292 288 285 281 276 271 267 259 252 247 242 240 239 235 227 221 217 212 204 198 197 193 189 190
296 298 298 299 299 299 300 300 300 302 303 303 302 303 302 304 301 299 298 295 290 288 285 280 274 267 261 255 247 239 235 229 226 222 218 210 205 203 196 194 191 192 191 189
298 299 298 299 299 301 302 302 302 302 301 302 302 302 303 301 300 298 298 294 291 288 282 276 267 262 256 248 236 228 220 221 215 212 204 198 191 192 187 183 185 189 191 191
297 297 298 301 300 303 303 301 302 303 302 303 303 302 302 300 299 298 296 293 290 286 278 270 262 255 249 243 231 221 213 211 202 196 191 187 183 180 177 178 183 191 193 191
295 297 299 301 300 302 301 301 303 304 303 303 302 302 301 300 298 297 294 291 288 282 277 267 257 250 239 228 219 211 204 200 189 187 187 183 176 172 162 161 177 189 191 193
297 299 301 302 302 303 302 301 303 303 302 302 302 301 299 297 296 293 290 289 289 280 267 256 246 237 228 214 203 197 195 189 182 188 185 178 172 165 162 154 172 196 190 194
300 302 302 302 303 304 301 302 303 302 301 302 301 300 298 296 295 291 291 293 283 268 256 246 241 234 227 207 198 190 192 185 180 188 183 179 171 167 166 170 176 192 189 192
301 302 302 302 304 304 302 302 302 301 301 301 299 297 295 293 288 288 293 288 276 266 255 246 239 231 223 202 195 191 188 184 183 187 184 179 177 179 181 178 183 183 184 190
301 301 302 304 304 304 303 302 301 300 301 300 297 296 294 289 285 294 287 273 269 264 256 242 237 227 216 198 191 191 186 183 185 185 185 179 181 183 184 181 185 182 183 188
301 300 302 303 302 302 301 301 299 298 298 294 297 294 292 282 291 289 277 267 264 258 250 241 231 217 203 189 187 189 185 182 186 186 184 180 182 186 186 183 183 180 180 185
300 302 306 303 301 302 302 298 296 294 293 295 292 294 281 285 291 277 271 271 264 246 233 221 213 202 189 181 184 186 184 183 185 188 183 182 182 188 187 181 181 181 184 188
301 307 304 303 299 304 297 294 291 293 293 292 292 279 274 290 277 272 271 265 245 223 211 210 204 192 180 179 182 182 182 183 185 189 188 184 184 187 182 182 181 182 188 177
308 305 302 297 303 295 294 291 291 289 289 285 279 265 281 272 264 263 248 221 213 207 198 186 184 177 174 178 180 180 177 180 184 186 189 187 182 182 187 183 185 181 185 188
306 299 298 300 299 289 289 288 288 287 284 282 259 262 264 249 246 222 204 200 181 169 170 171 170 170 169 174 177 173 172 178 182 185 187 186 187 190 188 183 186 178 180 179
Height
10818 10809 10809 10803 10799 10795 10790 10785 10782 10773 10766 10762 10758 10756 10745 10732 10721 10716 10709 10704 10701 10697 10698 10697 10693 10683 10670 10664 10661 10656 10647 10652 10656 10651 10650 10654 10657 10655 10654 10656 10657 10662 10664 10672
10806 10797 10792 10787 10780 10776 10768 10766 10764 10761 10749 10741 10741 10741 10729 10713 10699 10693 10687 10673 10670 10667 10664 10662 10659 10652 10645 10639 10634 10627 10619 10612 10618 10630 10624 10624 10628 10629 10633 10634 10637 10640 10644 10649
10791 10782 10777 10770 10767 10760 10751 10745 10743 10735 10732 10721 10714 10723 10709 10693 10678 10670 10663 10655 10644 10641 10638 10633 10628 10620 10609 10601 10600 10596 10592 10586 10578 10580 10587 10590 10591 10595 10599 10604 10602 10620 10621 10630
10774 10767 10759 10754 10747 10738 10732 10724 10716 10712 10704 10702 10690 10692 10694 10677 10660 10652 10642 10633 10623 10613 10604 10596 10589 10583 10575 10567 10564 10558 10558 10557 10551 10547 10546 10555 10563 10567 10569 10576 10572 10594 10597 10609
10757 10750 10742 10736 10726 10718 10709 10700 10692 10687 10680 10673 10667 10648 10662 10650 10634 10627 10619 10608 10598 10584 10573 10569 10562 10552 10541 10533 10525 10519 10520 10522 10521 10518 10518 10518 10526 10540 10546 10549 10549 10564 10580 10587
10738 10728 10724 10716 10703 10696 10684 10676 10665 10659 10651 10650 10634 10617 10631 10613 10599 10591 10581 10573 10560 10548 10537 10529 10520 10508 10501 10498 10491 10484 10483 10490 10495 10491 10490 10493 10498 10505 10522 10528 10529 10542 10558 10565
10722 10711 10701 10693 10682 10668 10655 10645 10635 10641 10631 10624 10610 10592 10573 10567 10561 10547 10538 10534 10522 10510 10499 10490 10482 10476 10468 10460 10457 10453 10456 10462 10467 10464 10465 10471 10475 10482 10497 10504 10512 10525 10536 10545
10711 10701 10685 10677 10664 10655 10640 10623 10605 10601 10600 10598 10599 10572 10552 10539 10525 10510 10502 10495 10482 10471 10459 10448 10445 10441 10435 10431 10427 10428 10434 10439 10445 10440 10444 10450 10456 10464 10476 10485 10497 10508 10519 10533
10688 10684 10668 10653 10639 10628 10620 10601 10580 10560 10566 10546 10546 10538 10520 10495 10480 10468 10457 10451 10448 10439 10424 10415 10413 10410 10407 10406 10406 10406 10413 10420 10424 10424 10425 10432 10439 10446 10459 10470 10484 10494 10506 10521
10662 10663 10654 10636 10619 10604 10591 10575 10560 10538 10521 10515 10516 10506 10481 10459 10445 10431 10422 10408 10408 10404 10393 10388 10386 10384 10383 10382 10385 10390 10393 10397 10404 10406 10408 10414 10423 10433 10445 10458 10468 10482 10495 10504
10633 10630 10630 10611 10588 10573 10565 10545 10516 10508 10493 10464 10456 10465 10435 10419 10408 10397 10394 10384 10373 10369 10365 10362 10363 10362 10364 10365 10366 10372 10378 10383 10388 10390 10395 10401 10411 10421 10432 10445 10456 10466 10480 10493
10607 10594 10592 10590 10563 10543 10529 10508 10486 10467 10467 10455 10421 10431 10396 10390 10379 10368 10359 10357 10349 10344 10343 10341 10340 10339 10342 10349 10352 10355 10360 10368 10373 10378 10383 10389 10400 10410 10422 10436 10445 10455 10469 10486
10580 10563 10554 10557 10536 10516 10497 10471 10443 10425 10420 10412 10391 10382 10372 10359 10355 10341 10336 10332 10327 10321 10320 10318 10319 10320 10320 10329 10334 10341 10348 10355 10359 10365 10371 10381 10393 10403 10414 10426 10437 10452 10465 10478
10550 10538 10521 10506 10493 10477 10477 10452 10418 10399 10389 10376 10361 10356 10335 10334 10323 10315 10311 10309 10304 10300 10298 10298 10298 10302 10303 10311 10320 10326 10334 10340 10347 10354 10363 10374 10385 10396 10408 10419 10433 10449 10461 10476
10512 10505 10485 10479 10451 10443 10429 10410 10395 10371 10353 10341 10339 10321 10321 10307 10299 10291 10290 10286 10283 10283 10279 10281 10281 10283 10288 10297 10306 10313 10321 10327 10335 10344 10357 10368 10378 10391 10404 10419 10434 10445 10455 10471
10477 10467 10448 10457 10413 10407 10396 10366 10357 10346 10331 10320 10308 10300 10294 10284 10278 10272 10269 10266 10265 10266 10264 10265 10266 10269 10276 10284 10293 10300 10309 10317 10327 10338 10350 10360 10373 10387 10401 10416 10429 10441 10456 10472
10448 10428 10418 10426 10393 10382 10359 10338 10327 10317 10302 10296 10286 10277 10267 10263 10257 10254 10251 10250 10250 10250 10251 10252 10254 10258 10265 10273 10282 10291 10299 10308 10320 10332 10340 10353 10371 10383 10393 10408 10422 10437 10454 10467
10416 10398 10382 10380 10360 10352 10328 10311 10306 10293 10280 10270 10262 10257 10250 10245 10241 10237 10235 10236 10238 10238 10237 10238 10239 10244 10251 10261 10271 10280 10288 10300 10312 10322 10331 10348 10362 10376 10388 10404 10419 10429 10448 10463
10379 10366 10354 10339 10330 10322 10298 10287 10282 10268 10257 10251 10243 10239 10234 10229 10225 10222 10222 10225 10225 10224 10225 10227 10229 10234 10240 10251 10260 10269 10279 10293 10303 10314 10328 10341 10355 10368 10380 10393 10411 10424 10442 10458
10355 10340 10323 10307 10301 10295 10275 10264 10254 10244 10239 10232 10227 10224 10220 10216 10214 10213 10214 10213 10213 10214 10216 10218 10221 10225 10233 10243 10252 10260 10272 10286 10294 10308 10321 10336 10350 10360 10375 10392 10405 10423 10442 10455
10325 10308 10292 10284 10269 10267 10250 10241 10233 10226 10221 10216 10213 10212 10208 10204 10202 10205 10205 10203 10204 10207 10209 10211 10213 10219 10225 10236 10245 10254 10267 10281 10289 10303 10318 10333 10346 10359 10373 10391 10406 10425 10442 10453
10295 10282 10277 10268 10250 10244 10232 10225 10218 10211 10207 10203 10202 10199 10197 10193 10196 10197 10195 10196 10198 10200 10202 10205 10208 10213 10220 10230 10238 10249 10261 10275 10288 10301 10317 10330 10344 10359 10373 10390 10406 10423 10438 10449
10267 10257 10256 10242 10228 10225 10216 10208 10202 10197 10195 10195 10191 10190 10185 10186 10190 10189 10189 10190 10192 10194 10198 10200 10202 10207 10215 10224 10233 10246 10260 10273 10285 10301 10317 10332 10344 10359 10375 10391 10408 10420 10434 10446
10240 10242 10228 10217 10208 10207 10198 10193 10187 10187 10186 10185 10183 10181 10177 10182 10182 10183 10184 10186 10187 10190 10193 10195 10199 10205 10212 10221 10230 10242 10258 10275 10288 10302 10317 10331 10346 10360 10375 10388 10404 10422 10436 10451
10226 10215 10205 10196 10196 10185 10183 10179 10177 10177 10177 10175 10176 10172 10175 10177 10177 10179 10181 10182 10184 10187 10189 10192 10197 10203 10211 10218 10227 10241 10259 10277 10293 10306 10319 10335 10350 10361 10376 10393 10407 10422 10436 10451
10204 10191 10185 10181 10179 10171 10170 10168 10168 10169 10168 10168 10168 10167 10171 10172 10174 10176 10178 10180 10182 10184 10187 10191 10195 10202 10209 10218 10230 10245 10262 10280 10297 10313 10326 10338 10347 10362 10379 10396 10410 10426 10440 10455